Weather History for KBUR - December, 2013

Change the Weather History Date:

Wednesday, December 4, 2013

  Actual Average Record
Temperature  
Mean Temperature 55 °F 55 °F  
Max Temperature 63 °F 68 °F 89 °F (1979)
Min Temperature 46 °F 42 °F 33 °F (1978)
Degree Days  
Heating Degree Days 10 10  
Month to date heating degree days 21 40  
Since 1 July heating degree days 109 268  
Cooling Degree Days 0 0  
Month to date cooling degree days 1 0  
Year to date cooling degree days 2012 1245  
Growing Degree Days 4 (Base 50)    
Moisture  
Dew Point 23 °F    
Average Humidity 35    
Maximum Humidity 54    
Minimum Humidity 16    
Precipitation  
Precipitation 0.00 in 0.06 in 2.76 in (1974)
Month to date precipitation 0.00 0.21  
Year to date precipitation 2.83 15.12  
Since 1 July precipitation 0.23 2.57  
Sea Level Pressure  
Sea Level Pressure 29.86 in    
Wind  
Wind Speed 6 mph (NW)    
Max Wind Speed 20 mph    
Max Gust Speed 25 mph    
Visibility 10 miles    
Events      
T = Trace of Precipitation, MM = Missing Value Source: NWS Daily Summary

Daily Weather History Graph

Daily Weather History Graph

Search for Another Location

Airport or City:

Trip Planner

Search our weather history database for the weather conditions in past years. The results will help you decide how hot, cold, wet, or windy it might be!

Date:

Astronomy

Dec. 04, 2013 Rise Set
Actual Time 6:44 AM PST 4:43 PM PST
Civil Twilight 6:16 AM PST 5:11 PM PST
Nautical Twilight 5:45 AM PST 5:42 PM PST
Astronomical Twilight 5:14 AM PST 6:12 PM PST
Moon 8:18 AM PST (12/4) 6:57 PM PST (12/4)
Length of Visible Light 10h 54m
Length of Day
9h 59m
Waxing Crescent, 5% of the Moon is Illuminated
Dec 4
Waxing Crescent
Dec 9
First Quarter
Dec 17
Full
Dec 25
Last Quarter
Jan 1
New

Hourly Weather History & Observations

Time (PST) Temp. Dew Point Humidity Pressure Visibility Wind Dir Wind Speed Gust Speed Precip Events Conditions
12:53 AM 53.1 °F 28.0 °F 38% 29.74 in 10.0 mi NW 4.6 mph - N/A   Partly Cloudy
1:53 AM 53.1 °F 21.0 °F 29% 29.75 in 10.0 mi NW 6.9 mph - N/A   Clear
2:53 AM 53.1 °F 19.0 °F 26% 29.75 in 10.0 mi NNW 12.7 mph 24.2 mph N/A   Clear
3:53 AM 52.0 °F 17.1 °F 25% 29.77 in 10.0 mi NNW 17.3 mph 23.0 mph N/A   Clear
4:53 AM 50.0 °F 18.0 °F 28% 29.80 in 10.0 mi NW 6.9 mph - N/A   Clear
5:53 AM 48.9 °F 18.0 °F 29% 29.83 in 10.0 mi NW 10.4 mph - N/A   Clear
6:53 AM 46.9 °F 18.0 °F 32% 29.87 in 10.0 mi North 4.6 mph - N/A   Clear
7:53 AM 50.0 °F 15.1 °F 25% 29.88 in 10.0 mi NW 6.9 mph - N/A   Clear
8:53 AM 54.0 °F 16.0 °F 22% 29.89 in 10.0 mi NNW 9.2 mph - N/A   Clear
9:53 AM 57.0 °F 12.9 °F 18% 29.90 in 10.0 mi West 9.2 mph - N/A   Clear
10:53 AM 59.0 °F 19.0 °F 21% 29.90 in 10.0 mi Variable 3.5 mph - N/A   Clear
11:53 AM 60.1 °F 15.1 °F 17% 29.87 in 10.0 mi SE 4.6 mph - N/A   Clear
12:53 PM 61.0 °F 21.9 °F 22% 29.85 in 10.0 mi Variable 5.8 mph - N/A   Clear
1:53 PM 62.1 °F 16.0 °F 17% 29.84 in 10.0 mi Variable 4.6 mph - N/A   Clear
2:53 PM 62.1 °F 24.1 °F 23% 29.85 in 10.0 mi SSW 9.2 mph - N/A   Clear
3:53 PM 59.0 °F 27.0 °F 29% 29.86 in 10.0 mi South 9.2 mph - N/A   Clear
4:53 PM 55.9 °F 27.0 °F 33% 29.88 in 10.0 mi SSE 4.6 mph - N/A   Scattered Clouds
5:53 PM 55.0 °F 27.0 °F 34% 29.89 in 10.0 mi South 3.5 mph - N/A   Scattered Clouds
6:53 PM 54.0 °F 28.9 °F 38% 29.90 in 10.0 mi East 4.6 mph - N/A   Partly Cloudy
7:53 PM 53.1 °F 28.9 °F 40% 29.91 in 10.0 mi Calm Calm - N/A   Mostly Cloudy
8:53 PM 51.1 °F 30.9 °F 46% 29.92 in 10.0 mi Calm Calm - N/A   Partly Cloudy
9:53 PM 48.0 °F 32.0 °F 54% 29.93 in 10.0 mi Calm Calm - N/A   Clear
10:53 PM 46.9 °F 30.9 °F 54% 29.93 in 10.0 mi East 3.5 mph - N/A   Clear
11:53 PM 46.0 °F 30.9 °F 56% 29.93 in 10.0 mi Calm Calm - N/A   Partly Cloudy